Showing default

CANX-4, 40055

Orbit data source: Space-Track

CANX-4, 40055 is a payload satellite owned by UTIAS-SFL (CA) in SSO that was launched on Mon, 30 Jun 2014 UTC via a PSLV launch vehicle from the Sirharikota (SRI). Payload-class satellites include a variety of spacecraft equipped with specific instruments for various scientific and technological missions. These include communications satellites like Starlink; space stations such as the ISS; scientific satellites like the Hubble; Earth observation satellites from companies like Planet Labs, Umbra, and HawkEye 360; GPS; miniature CubeSats for education and research; and military/defense satellites.

Loading next visibility...
Identifier
40055, 2014-034C
Orbit
SSO
Last TLE update
13 hours ago
Origin
Manufacturer
UTIAS-SFL
Mission
Operational Amateur Technology
Bus & Motor
GNB, Unknown motor
Mass
7 kg wet, 7 kg dry
Launch date (UTC)
2014-06-30 (11 years ago)
Launch vehicle
PSLV
Launch site
Sirharikota (SRI)
Object type
Payload
Rocket body
Debris
Shape & HBR
Box + 4 Ant, 0.2 m
Radar Cross Section
0.060 m², Medium (>0.1 m² and < 1m²)

Expand to show TLE details & history

TLE from 13 hours ago
0 CANX-4
1 40055U 14034C   25183.60053654  .00000750  00000-0  10599-3 0  9993
2 40055  98.3605  40.2724 0014123  56.8724 303.3839 14.80262214592824
Epoch: 2025-07-02T14:24Z
TLE epoch observation values (Epoch: 2025-07-02T14:24:46.357Z)
Latitude
-0.00009°
Longitude
-96.80005°
Altitude
626.068 km
Speed
7.548 km/s
True Right ascension
02h 41m 05s
True Declination
0° 00' 00"
Sunlit
Object was in daylight at epoch
Visualization orbit readout
Latitude
21.07774°
Longitude
-99.46246°
Altitude
622.944 km
Speed
7.554 km/s
Apparent Right ascension
02h 49m 15s
Apparent Declination
-7° 50' 25"
Sunlit
Object is in daylight
Visualization observer readout
Local Sidereal Time
15:14:23
Azimuth
11.619° NNE
Elevation
-57.435°
Doppler factor
1
Orbital elements
Apogee altitude
635.45 km
Perigee altitude
615.667 km
Semi-major axis
7,003.695 km
Eccentricity
0.00141
Inclination
98.3605°
RAAN
40.2724°
Arg. of periapsis
56.8724°
True anomaly
Unknown
Mean anomaly
303.3839°
Eccentric anomaly
Unknown
Mean motion
3.70299 °/min
Orbital period
97.22 mins
BSTAR
0.00010599
Loading maneuver chart data...
Loading SW <> Apogee altitude chart data...
Loading historical data...
Loading historical data...
Loading historical data...
Loading historical data...
Loading historical data...
Loading historical data...
Loading historical data...
Other satellites on launch #34 in the year 2014 (2014-06-30 UTC)

CANX-4 Visibility forecast

Observer location: undefined°, undefined°

Span
Click to sort rows by Start time (UTC) header in descending order
Start Az.
Max El. time (UTC)
Max El. Az.
Max El.
End time (UTC)
End Az.
7 mins2025-07-03 03:57:11.820Z352.63° N2025-07-03 04:00:11.820Z302.633° NW30.457°2025-07-03 04:04:11.820Z224.702° SW
6 mins2025-07-03 14:53:11.820Z199.328° SSW2025-07-03 14:55:11.820Z248.813° W35.167°2025-07-03 14:59:11.820Z332.216° NNW
5 mins2025-07-04 02:42:11.820Z53.153° ENE2025-07-04 02:44:11.820Z95.865° ESE26.363°2025-07-04 02:47:11.820Z151.776° SSE
|